Vorticity
nan nan nan nan nan nan nan nan nan nan nan nan nan nan nan nan nan nan nan nan nan nan
nan 9 11 9 9 11 12 9 9 9 8 7 8 12 12 8 10 11 9 8 10 nan
nan 9 9 7 10 10 9 10 9 9 9 8 8 11 12 10 10 10 10 8 8 nan
nan 8 8 9 9 8 7 10 11 10 8 7 8 10 11 10 9 9 10 10 10 nan
nan 8 8 9 8 9 9 7 10 9 8 7 7 9 9 9 10 9 9 8 8 nan
nan 9 11 9 9 10 10 8 9 10 9 9 9 8 8 9 10 11 9 9 8 nan
nan 12 12 10 9 8 10 10 8 8 9 11 10 7 10 11 11 11 9 8 8 nan
nan 11 10 10 10 10 10 10 8 7 9 10 7 10 12 12 11 10 11 8 7 nan
nan 9 8 8 8 9 9 10 10 10 9 8 7 9 11 11 10 12 10 10 9 nan
nan 8 9 9 9 9 8 8 9 11 10 8 7 5 6 10 12 11 9 10 9 nan
nan 9 8 9 10 9 10 9 8 9 11 8 7 4 5 8 11 10 15 16 10 nan
nan 8 10 10 9 9 8 8 10 9 10 9 9 5 4 7 9 10 11 14 16 nan
nan 11 10 9 7 9 11 11 11 12 11 9 9 8 5 5 7 7 9 9 13 nan
nan nan nan nan nan nan nan nan nan nan nan nan nan nan nan nan nan nan nan nan nan nan
CAPE
2769 1677 1553 1583 844 479 714 850 829 943 1052 1136 1171 1040 803 781 778 548 468 436 440 469
1989 1975 1678 897 628 776 1107 1069 965 866 814 309 300 642 991 750 494 445 321 374 259 343
1909 1880 1611 1094 1595 1173 1045 888 865 692 808 553 267 696 515 369 258 63 123 78 0 0
1884 1700 1697 1605 1371 1116 877 927 708 599 437 280 468 265 119 1 12 37 0 0 0 0
1858 1768 1753 1338 1028 1180 765 720 688 530 488 161 206 51 0 0 3 2 2 0 0 0
1898 1798 1665 1282 1227 933 778 779 509 300 235 45 39 0 3 8 7 6 0 0 0 0
1945 1755 1164 1125 991 627 496 179 14 0 0 0 0 0 0 0 0 0 0 0 0 0
1618 1248 992 753 628 492 337 141 0 5 0 0 0 0 0 0 0 0 0 0 0 0
1134 900 807 707 561 351 243 140 19 0 0 0 0 0 0 0 0 0 0 0 0 0
938 943 892 654 434 135 126 0 0 0 0 0 0 0 0 0 0 0 0 0 0 0
888 710 581 349 191 58 1 0 0 0 0 0 0 0 0 0 0 0 0 0 0 0
458 434 358 222 63 0 0 0 0 0 0 0 0 0 0 0 0 0 0 0 0 0
484 427 219 15 0 0 0 0 0 0 0 0 0 0 0 0 0 0 0 0 0 0
385 173 11 0 0 0 0 0 0 0 0 0 0 0 0 0 0 0 0 0 0 0